Location: Écuvilly
(49.6505°N, 2.9206°E)
Time: 16:09:30
(UTC+00:00)

Spot 4 Rocket - Pass Details

Date: 17 November 2025
Orbit: 769 x 773 km, 98.8° (Epoch: 13 December)

Event Time Altitude Azimuth Distance (km) Brightness Sun altitude
Rises 17:25:44 0° 145° (SE) 3,231 7.0 -13.3°
Reaches altitude 10° 17:28:06 10° 139° (SE) 2,308 6.2 -13.7°
Maximum altitude 17:32:57 47° 67° (ENE) 1,014 4.2 -14.4°
Drops below altitude 10° 17:37:50 10° 355° (N) 2,324 6.4 -15.2°
Sets 17:40:13 0° 350° (N) 3,256 7.3 -15.6°
